EZY396L EGPH-EGSS

Flight info

Callsign EZY396L
Flight time 1h 1m
Altitude 33000
Route GOSAM P600 FENIK L612 NAVSO DCT AKOMU DCT VAMEB UL612 LISTO
Aircraft A320/M-SDE3FGHIRWY/LB1

Departure

Time 2026-04-23 10:46
Airport Edinburgh Airport (EGPH)

Arrival

Time 2026-04-23 11:47
Airport London Stansted Airport (EGSS)
Time Latitude Longitude Altitude Speed Heading
2026-04-23 10:29 55.94846 -3.35858 142 ft 0 kts 206°
2026-04-23 10:38 55.94850 -3.35855 142 ft 2 kts 208°
2026-04-23 10:38 55.94864 -3.35842 142 ft 2 kts 206°
2026-04-23 10:39 55.94877 -3.35831 142 ft 2 kts 208°
2026-04-23 10:39 55.94888 -3.35814 142 ft 2 kts 233°
2026-04-23 10:39 55.94896 -3.35790 142 ft 2 kts 253°
2026-04-23 10:39 55.94898 -3.35764 142 ft 2 kts 273°
2026-04-23 10:40 55.94895 -3.35738 142 ft 1 kts 293°
2026-04-23 10:40 55.94892 -3.35727 142 ft 1 kts 301°
2026-04-23 10:40 55.94891 -3.35723 142 ft 0 kts 299°
2026-04-23 10:42 55.94892 -3.35727 142 ft 3 kts 299°
2026-04-23 10:42 55.94925 -3.35822 142 ft 15 kts 313°
2026-04-23 10:43 55.95047 -3.35858 142 ft 18 kts 310°
2026-04-23 10:43 55.95101 -3.36051 142 ft 17 kts 290°
2026-04-23 10:43 55.95133 -3.36278 142 ft 19 kts 252°
2026-04-23 10:43 55.95064 -3.36488 142 ft 19 kts 238°
2026-04-23 10:44 55.94991 -3.36704 142 ft 21 kts 239°
2026-04-23 10:44 55.94907 -3.36952 142 ft 25 kts 238°
2026-04-23 10:44 55.94809 -3.37241 142 ft 28 kts 239°
2026-04-23 10:44 55.94701 -3.37560 142 ft 31 kts 239°
2026-04-23 10:45 55.94596 -3.37866 142 ft 19 kts 240°
2026-04-23 10:45 55.94653 -3.38004 142 ft 15 kts 329°
2026-04-23 10:45 55.94720 -3.38064 142 ft 9 kts 43°
2026-04-23 10:45 55.94768 -3.37923 142 ft 30 kts 59°
2026-04-23 10:46 55.95006 -3.37221 142 ft 99 kts 59°
2026-04-23 10:46 55.95467 -3.35869 149 ft 153 kts 58°
2026-04-23 10:46 55.96061 -3.34231 679 ft 156 kts 51°
2026-04-23 10:46 55.96812 -3.32865 1305 ft 159 kts 44°
2026-04-23 10:47 55.97672 -3.31597 1964 ft 161 kts 42°
2026-04-23 10:47 55.98535 -3.30240 2339 ft 174 kts 44°
2026-04-23 10:47 55.99491 -3.28769 2673 ft 192 kts 35°
2026-04-23 10:47 56.00836 -3.28175 2989 ft 213 kts 354°
2026-04-23 10:48 56.02206 -3.29349 3307 ft 231 kts 313°
2026-04-23 10:48 56.02935 -3.31959 3708 ft 244 kts 276°
2026-04-23 10:48 56.02920 -3.34937 4475 ft 243 kts 261°
2026-04-23 10:48 56.02616 -3.37892 5238 ft 244 kts 255°
2026-04-23 10:49 56.02214 -3.40833 5744 ft 245 kts 253°
2026-04-23 10:49 56.01785 -3.43762 5946 ft 246 kts 253°
2026-04-23 10:49 56.01355 -3.46713 5948 ft 245 kts 254°
2026-04-23 10:49 56.00934 -3.49662 5950 ft 246 kts 254°
2026-04-23 10:50 56.00513 -3.52614 5953 ft 246 kts 254°
2026-04-23 10:50 56.00091 -3.55577 5954 ft 246 kts 254°
2026-04-23 10:50 55.99668 -3.58548 5947 ft 246 kts 254°
2026-04-23 10:50 55.99246 -3.61506 5948 ft 246 kts 254°
2026-04-23 10:51 55.98824 -3.64472 5958 ft 246 kts 254°
2026-04-23 10:51 55.98402 -3.67418 5937 ft 245 kts 253°
2026-04-23 10:51 55.97973 -3.70405 5950 ft 245 kts 251°
2026-04-23 10:51 55.97223 -3.73093 5994 ft 248 kts 221°
2026-04-23 10:52 55.95822 -3.74421 6353 ft 258 kts 188°
2026-04-23 10:52 55.94202 -3.74471 7029 ft 262 kts 178°
2026-04-23 10:52 55.92356 -3.74462 7839 ft 265 kts 181°
2026-04-23 10:52 55.90491 -3.74579 8606 ft 270 kts 182°
2026-04-23 10:53 55.88630 -3.74737 9372 ft 275 kts 182°
2026-04-23 10:53 55.86715 -3.74914 10123 ft 279 kts 183°
2026-04-23 10:53 55.84781 -3.75104 10853 ft 284 kts 183°
2026-04-23 10:53 55.82772 -3.75305 11287 ft 299 kts 183°
2026-04-23 10:54 55.80647 -3.75519 11648 ft 315 kts 183°
2026-04-23 10:54 55.78439 -3.75743 12255 ft 321 kts 182°
2026-04-23 10:54 55.76212 -3.75969 12952 ft 324 kts 182°
2026-04-23 10:54 55.73937 -3.76198 13607 ft 328 kts 182°
2026-04-23 10:55 55.71666 -3.76427 14237 ft 332 kts 182°
2026-04-23 10:55 55.69340 -3.76660 14888 ft 335 kts 183°
2026-04-23 10:55 55.67021 -3.76892 15497 ft 339 kts 183°
2026-04-23 10:55 55.64671 -3.77128 16090 ft 342 kts 183°
2026-04-23 10:56 55.62284 -3.77367 16659 ft 346 kts 183°
2026-04-23 10:56 55.59876 -3.77609 17222 ft 350 kts 184°
2026-04-23 10:56 55.57450 -3.77854 17757 ft 354 kts 183°
2026-04-23 10:56 55.54968 -3.78106 18294 ft 357 kts 183°
2026-04-23 10:57 55.52481 -3.78355 18829 ft 361 kts 183°
2026-04-23 10:57 55.49991 -3.78605 19367 ft 363 kts 183°
2026-04-23 10:57 55.47485 -3.78855 19896 ft 365 kts 183°
2026-04-23 10:57 55.44947 -3.79109 20415 ft 368 kts 183°
2026-04-23 10:58 55.42375 -3.79365 20930 ft 370 kts 183°
2026-04-23 10:58 55.39822 -3.79618 21432 ft 372 kts 184°
2026-04-23 10:58 55.37210 -3.79878 21941 ft 374 kts 183°
2026-04-23 10:58 55.34628 -3.80137 22443 ft 376 kts 183°
2026-04-23 10:59 55.32003 -3.80397 22917 ft 378 kts 183°
2026-04-23 10:59 55.29402 -3.80653 23392 ft 380 kts 183°
2026-04-23 10:59 55.26783 -3.80910 23857 ft 381 kts 183°
2026-04-23 10:59 55.24102 -3.81001 24270 ft 385 kts 176°
2026-04-23 11:00 55.21465 -3.80239 24648 ft 389 kts 165°
2026-04-23 11:00 55.18941 -3.78586 25034 ft 392 kts 155°
2026-04-23 11:00 55.16481 -3.76501 25438 ft 395 kts 154°
2026-04-23 11:00 55.14007 -3.74346 25835 ft 398 kts 153°
2026-04-23 11:01 55.11520 -3.72180 26233 ft 401 kts 154°
2026-04-23 11:01 55.09034 -3.70028 26616 ft 403 kts 153°
2026-04-23 11:01 55.06505 -3.67850 26996 ft 406 kts 153°
2026-04-23 11:01 55.03965 -3.65670 27351 ft 408 kts 153°
2026-04-23 11:02 55.01439 -3.63509 27681 ft 411 kts 153°
2026-04-23 11:02 54.98843 -3.61293 28037 ft 414 kts 153°
2026-04-23 11:02 54.96268 -3.59096 28381 ft 416 kts 153°
2026-04-23 11:02 54.93684 -3.56898 28730 ft 418 kts 153°
2026-04-23 11:03 54.91064 -3.54673 29060 ft 420 kts 153°
2026-04-23 11:03 54.88429 -3.52437 29375 ft 422 kts 153°
2026-04-23 11:03 54.85795 -3.50207 29653 ft 425 kts 153°
2026-04-23 11:03 54.83141 -3.47963 29948 ft 427 kts 153°
2026-04-23 11:04 54.80484 -3.45719 30233 ft 429 kts 153°
2026-04-23 11:04 54.77782 -3.43441 30486 ft 432 kts 153°
2026-04-23 11:04 54.75073 -3.41161 30730 ft 434 kts 153°
2026-04-23 11:04 54.72354 -3.38875 30982 ft 436 kts 153°
2026-04-23 11:05 54.69637 -3.36595 31219 ft 439 kts 153°
2026-04-23 11:05 54.66903 -3.34305 31462 ft 440 kts 154°
2026-04-23 11:05 54.64136 -3.31990 31695 ft 442 kts 154°
2026-04-23 11:05 54.61340 -3.29656 31925 ft 444 kts 154°
2026-04-23 11:06 54.55785 -3.25025 32359 ft 447 kts 154°
2026-04-23 11:06 54.53001 -3.22709 32570 ft 449 kts 154°
2026-04-23 11:06 54.50195 -3.20379 32773 ft 450 kts 154°
2026-04-23 11:07 54.47369 -3.18036 32967 ft 452 kts 154°
2026-04-23 11:07 54.44526 -3.15682 33150 ft 454 kts 154°
2026-04-23 11:07 54.41706 -3.13350 33319 ft 455 kts 154°
2026-04-23 11:07 54.38853 -3.10995 33453 ft 457 kts 154°
2026-04-23 11:08 54.35989 -3.08634 33459 ft 457 kts 154°
2026-04-23 11:08 54.30260 -3.03922 33465 ft 457 kts 154°
2026-04-23 11:09 54.24559 -2.99247 33469 ft 458 kts 154°
2026-04-23 11:09 54.18826 -2.94561 33472 ft 457 kts 154°
2026-04-23 11:10 54.13014 -2.90186 33476 ft 458 kts 156°
2026-04-23 11:10 54.07155 -2.85908 33483 ft 459 kts 156°
2026-04-23 11:11 54.01283 -2.81637 33490 ft 460 kts 156°
2026-04-23 11:11 53.95421 -2.77387 33494 ft 460 kts 156°
2026-04-23 11:12 53.89530 -2.73126 33492 ft 460 kts 156°
2026-04-23 11:12 53.83630 -2.68877 33492 ft 461 kts 156°
2026-04-23 11:13 53.77748 -2.64655 33492 ft 462 kts 156°
2026-04-23 11:13 53.71835 -2.60421 33491 ft 462 kts 156°
2026-04-23 11:14 53.65929 -2.56207 33490 ft 463 kts 156°
2026-04-23 11:14 53.59974 -2.51972 33492 ft 463 kts 156°
2026-04-23 11:15 53.54066 -2.47780 33492 ft 464 kts 156°
2026-04-23 11:15 53.48118 -2.43573 33493 ft 464 kts 156°
2026-04-23 11:16 53.42205 -2.39408 33493 ft 465 kts 156°
2026-04-23 11:16 53.36248 -2.35220 33491 ft 465 kts 156°
2026-04-23 11:17 53.30279 -2.31031 33489 ft 466 kts 157°
2026-04-23 11:17 53.24287 -2.26846 33491 ft 466 kts 157°
2026-04-23 11:18 53.18361 -2.22640 33487 ft 466 kts 154°
2026-04-23 11:18 53.12622 -2.17542 33483 ft 465 kts 147°
2026-04-23 11:19 53.07307 -2.11443 33475 ft 465 kts 142°
2026-04-23 11:19 53.02131 -2.05106 33470 ft 465 kts 142°
2026-04-23 11:20 52.96898 -1.98742 33468 ft 466 kts 142°
2026-04-23 11:20 52.91724 -1.92479 33075 ft 464 kts 142°
2026-04-23 11:20 52.89092 -1.89301 32068 ft 471 kts 142°
2026-04-23 11:21 52.86439 -1.86101 31108 ft 475 kts 142°
2026-04-23 11:21 52.83786 -1.82908 30413 ft 472 kts 142°
2026-04-23 11:21 52.81137 -1.79729 29810 ft 466 kts 142°
2026-04-23 11:21 52.78547 -1.76627 29267 ft 460 kts 142°
2026-04-23 11:22 52.75949 -1.73587 28763 ft 453 kts 144°
2026-04-23 11:22 52.73291 -1.70849 28277 ft 447 kts 148°
2026-04-23 11:22 52.70569 -1.68420 27805 ft 441 kts 150°
2026-04-23 11:22 52.67907 -1.66135 27343 ft 435 kts 151°
2026-04-23 11:23 52.65236 -1.63847 26888 ft 428 kts 150°
2026-04-23 11:23 52.62593 -1.61585 26434 ft 422 kts 150°
2026-04-23 11:23 52.60016 -1.59377 25981 ft 417 kts 150°
2026-04-23 11:23 52.57473 -1.57201 25538 ft 412 kts 150°
2026-04-23 11:24 52.54955 -1.55047 25087 ft 407 kts 150°
2026-04-23 11:24 52.52481 -1.52933 24636 ft 403 kts 150°
2026-04-23 11:24 52.50012 -1.50823 24193 ft 398 kts 150°
2026-04-23 11:24 52.47588 -1.48759 23754 ft 395 kts 150°
2026-04-23 11:25 52.45152 -1.46683 23314 ft 391 kts 150°
2026-04-23 11:25 52.42749 -1.44637 22869 ft 387 kts 150°
2026-04-23 11:25 52.40403 -1.42643 22440 ft 384 kts 150°
2026-04-23 11:25 52.38033 -1.40628 22001 ft 380 kts 150°
2026-04-23 11:26 52.35715 -1.38664 21570 ft 377 kts 150°
2026-04-23 11:26 52.33396 -1.36704 21127 ft 374 kts 150°
2026-04-23 11:26 52.31078 -1.34745 20686 ft 372 kts 151°
2026-04-23 11:26 52.28827 -1.32766 20260 ft 368 kts 148°
2026-04-23 11:27 52.26609 -1.30675 20233 ft 365 kts 148°
2026-04-23 11:27 52.24451 -1.28643 20254 ft 348 kts 148°
2026-04-23 11:27 52.22394 -1.26705 20027 ft 339 kts 148°
2026-04-23 11:27 52.20372 -1.24799 19748 ft 332 kts 148°
2026-04-23 11:28 52.18390 -1.22932 19416 ft 328 kts 148°
2026-04-23 11:28 52.16434 -1.21090 19086 ft 323 kts 148°
2026-04-23 11:28 52.14510 -1.19281 18773 ft 318 kts 148°
2026-04-23 11:28 52.12615 -1.17501 18460 ft 314 kts 148°
2026-04-23 11:29 52.10742 -1.15742 18148 ft 309 kts 148°
2026-04-23 11:29 52.08897 -1.14016 17846 ft 304 kts 148°
2026-04-23 11:29 52.07092 -1.12329 17555 ft 300 kts 148°
2026-04-23 11:29 52.05285 -1.10644 17263 ft 295 kts 148°
2026-04-23 11:30 52.03517 -1.08992 16966 ft 291 kts 147°
2026-04-23 11:30 52.01804 -1.07335 16681 ft 286 kts 141°
2026-04-23 11:30 52.00466 -1.05092 16257 ft 276 kts 120°
2026-04-23 11:30 51.99722 -1.02245 15565 ft 275 kts 100°
2026-04-23 11:31 51.99600 -0.99182 15268 ft 271 kts 89°
2026-04-23 11:31 51.99616 -0.96203 15252 ft 265 kts 89°
2026-04-23 11:31 51.99625 -0.93232 15010 ft 260 kts 89°
2026-04-23 11:31 51.99631 -0.90333 14727 ft 259 kts 89°
2026-04-23 11:32 51.99634 -0.87441 14448 ft 257 kts 90°
2026-04-23 11:32 51.99635 -0.84562 14159 ft 255 kts 90°
2026-04-23 11:32 51.99636 -0.81683 13854 ft 254 kts 90°
2026-04-23 11:32 51.99636 -0.78823 13462 ft 251 kts 90°
2026-04-23 11:33 51.99634 -0.75925 13012 ft 262 kts 90°
2026-04-23 11:33 51.99630 -0.72993 12626 ft 263 kts 90°
2026-04-23 11:33 51.99626 -0.70015 12261 ft 262 kts 90°
2026-04-23 11:33 51.99622 -0.67079 11915 ft 261 kts 90°
2026-04-23 11:34 51.99618 -0.64149 11581 ft 260 kts 90°
2026-04-23 11:34 51.99612 -0.61252 11280 ft 254 kts 90°
2026-04-23 11:34 51.99605 -0.58444 11026 ft 248 kts 90°
2026-04-23 11:34 51.99598 -0.55696 10691 ft 247 kts 90°
2026-04-23 11:35 51.99591 -0.52887 10312 ft 248 kts 90°
2026-04-23 11:35 51.99583 -0.50114 9968 ft 247 kts 90°
2026-04-23 11:35 51.99573 -0.47308 9620 ft 246 kts 90°
2026-04-23 11:35 51.99564 -0.44576 9289 ft 244 kts 90°
2026-04-23 11:36 51.99553 -0.41823 8960 ft 242 kts 90°
2026-04-23 11:36 51.99542 -0.39122 8635 ft 241 kts 91°
2026-04-23 11:36 51.99511 -0.36424 8312 ft 240 kts 91°
2026-04-23 11:36 51.99471 -0.33706 7979 ft 239 kts 92°
2026-04-23 11:37 51.99430 -0.30995 7646 ft 239 kts 92°
2026-04-23 11:37 51.99391 -0.28326 7328 ft 238 kts 92°
2026-04-23 11:37 51.99352 -0.25662 7003 ft 237 kts 92°
2026-04-23 11:37 51.99312 -0.22977 6672 ft 236 kts 92°
2026-04-23 11:38 51.99272 -0.20328 6354 ft 236 kts 92°
2026-04-23 11:38 51.99231 -0.17696 6025 ft 235 kts 92°
2026-04-23 11:38 51.99166 -0.15047 5692 ft 234 kts 98°
2026-04-23 11:38 51.98602 -0.12628 5363 ft 234 kts 125°
2026-04-23 11:39 51.97415 -0.10850 5043 ft 235 kts 144°
2026-04-23 11:39 51.96027 -0.09418 4717 ft 234 kts 145°
2026-04-23 11:39 51.94664 -0.08016 4392 ft 234 kts 144°
2026-04-23 11:39 51.93284 -0.06588 4064 ft 234 kts 144°
2026-04-23 11:40 51.91939 -0.05190 3743 ft 233 kts 144°
2026-04-23 11:40 51.90557 -0.03751 3411 ft 233 kts 144°
2026-04-23 11:40 51.89202 -0.02339 3091 ft 232 kts 144°
2026-04-23 11:40 51.87853 -0.00937 2960 ft 222 kts 143°
2026-04-23 11:41 51.86572 0.00395 2893 ft 218 kts 143°
2026-04-23 11:41 51.85267 0.01593 2823 ft 220 kts 157°
2026-04-23 11:41 51.83729 0.01900 2851 ft 228 kts 182°
2026-04-23 11:41 51.82200 0.01093 2877 ft 235 kts 207°
2026-04-23 11:42 51.80849 -0.00377 2921 ft 232 kts 207°
2026-04-23 11:42 51.79432 -0.01397 2928 ft 211 kts 187°
2026-04-23 11:42 51.78077 -0.01413 2895 ft 188 kts 159°
2026-04-23 11:42 51.76958 -0.00479 2694 ft 176 kts 133°
2026-04-23 11:43 51.76255 0.01046 2715 ft 169 kts 112°
2026-04-23 11:43 51.75979 0.02892 2613 ft 168 kts 92°
2026-04-23 11:43 51.76077 0.04757 2540 ft 168 kts 71°
2026-04-23 11:43 51.76775 0.06275 2503 ft 172 kts 47°
2026-04-23 11:44 51.77667 0.07563 2473 ft 172 kts 43°
2026-04-23 11:44 51.78610 0.08773 2489 ft 172 kts 42°
2026-04-23 11:44 51.79558 0.10061 2468 ft 172 kts 45°
2026-04-23 11:44 51.80440 0.11347 2281 ft 172 kts 45°
2026-04-23 11:45 51.81319 0.12668 2068 ft 169 kts 46°
2026-04-23 11:45 51.82142 0.13912 1843 ft 157 kts 46°
2026-04-23 11:45 51.82913 0.15073 1614 ft 145 kts 45°
2026-04-23 11:45 51.83623 0.16142 1421 ft 135 kts 46°
2026-04-23 11:46 51.84288 0.17144 1251 ft 129 kts 46°
2026-04-23 11:46 51.84938 0.18122 1092 ft 128 kts 45°
2026-04-23 11:46 51.85589 0.19102 931 ft 128 kts 44°
2026-04-23 11:46 51.86243 0.20083 755 ft 127 kts 45°
2026-04-23 11:47 51.86889 0.21044 595 ft 127 kts 47°
2026-04-23 11:47 51.87538 0.22027 432 ft 126 kts 49°
2026-04-23 11:47 51.88161 0.22984 342 ft 118 kts 44°
2026-04-23 11:47 51.88493 0.23479 341 ft 25 kts 39°
2026-04-23 11:48 51.88625 0.23672 341 ft 25 kts 41°
2026-04-23 11:48 51.88759 0.23872 341 ft 27 kts 45°
2026-04-23 11:48 51.88861 0.24129 341 ft 26 kts 68°
2026-04-23 11:48 51.88914 0.24409 341 ft 25 kts 72°
2026-04-23 11:49 51.88871 0.24572 341 ft 8 kts 114°
2026-04-23 11:49 51.88831 0.24644 341 ft 9 kts 140°
2026-04-23 11:49 51.88827 0.24688 341 ft 7 kts 76°
2026-04-23 11:49 51.88917 0.24886 341 ft 36 kts 43°
2026-04-23 11:50 51.89140 0.25224 341 ft 43 kts 43°
2026-04-23 11:50 51.89328 0.25511 341 ft 28 kts 51°
2026-04-23 11:50 51.89289 0.25586 341 ft 7 kts 200°
2026-04-23 11:50 51.89263 0.25573 341 ft 0 kts 195°